User: anonymous   Login
Location: Unspecified
(0.0000°N, 0.0000°E)
Time: 06:19:19
(UTC+00:00)
Language:

N. Korean satellite - Orbit

View from above orbital plane
View from above orbital plane
View from above satellite
View from above satellite

Ground track
Ground track

The orbit data is extracted from the following two-line orbital elements,

1 39026U 12072A   17234.78304357  .00001772  00000-0  71025-4 0  9992
2 39026  97.2222 250.3497 0038736 302.7082  57.0424 15.25651989260141
Epoch (UTC): 22 August 2017 18:47:34
Eccentricity: 0.0038736
inclination: 97.2222°
perigee height: 462 km
apogee height: 515 km
right ascension of ascending node: 250.3497°
argument of perigee: 302.7082°
revolutions per day: 15.25651989
mean anomaly at epoch: 57.0424°
orbit number at epoch: 26014

The dashed part of the orbit path shows where the satellite is in the earth's shadow,  

DLR